Regional Weather Roundup
Issued by NWS Charleston, WV

Home | Current Version | Previous Version | Graphics & Text | Print | Product List | Glossary On
Versions: 1 2 3 4 5 6 7 8 9 10 11 12 13 14 15 16 17 18 19 20 21 22 23 24 25 26 27
000
ASUS41 KRLX 182210
RWRRLX
West Virginia Regional Weather Roundup
National Weather Service Charleston WV
600 PM EDT FRI AUG 18 2017

Note: "fair" indicates few or no clouds below 12,000 feet with no
significant weather and/or obstructions to visibility.

WVZ003-182300-
Northern Panhandle of West Virginia

CITY           SKY/WX    TMP DP  RH WIND       PRES   REMARKS
WHEELING       SUNNY     81  62  52 W14G21    29.85S
$$

WVZ009-182300-
Northwest West Virginia

CITY           SKY/WX    TMP DP  RH WIND       PRES   REMARKS
PARKERSBURG    SUNNY     83  65  54 W12G22    29.89S
$$

WVZ006-182300-
Western West Virginia

CITY           SKY/WX    TMP DP  RH WIND       PRES   REMARKS
HUNTINGTON     MOSUNNY   85  64  49 NW7       29.89S
$$

WVZ015-182300-
West Central West Virginia

CITY           SKY/WX    TMP DP  RH WIND       PRES   REMARKS
CHARLESTON     MOSUNNY   83  66  56 W8        29.88R
$$

WVZ022-031-182300-
North Central West Virginia

CITY           SKY/WX    TMP DP  RH WIND       PRES   REMARKS
CLARKSBURG     MOSUNNY   84  66  54 W14G22    29.86R
MORGANTOWN     PTSUNNY   83  66  56 W9        29.86R
$$

WVZ025-035-042-045-182300-
Southern West Virginia

CITY           SKY/WX    TMP DP  RH WIND       PRES   REMARKS
BECKLEY        CLOUDY    76  67  73 W8        29.98S
LOGAN          PTSUNNY   79  72  78 SW6       29.94S
BLUEFIELD      CLOUDY    70  64  81 W6        30.02F
LEWISBURG      CLOUDY    75  65  70 W6        29.96S
$$

WVZ047-182300-
Northern Mountains of West Virginia

CITY           SKY/WX    TMP DP  RH WIND       PRES   REMARKS
ELKINS         PTSUNNY   80  67  64 VRB6      29.92S
$$

WVZ052-182300-
Eastern Panhandle of West Virginia

CITY           SKY/WX    TMP DP  RH WIND       PRES   REMARKS
MARTINSBURG    CLOUDY    83  72  69 SW8       29.78S
PETERSBURG     MOSUNNY   87  72  61 W6        29.83S
$$




USA.gov is the U.S. government's official web portal to all federal, state and local government web resources and services.